This is the latest recevied weather packets stored in our database for station/object KE4LOJ. If no packets are shown the sender has not sent any weather packets the latest 10 day(s).
| Time | Temp. | Humidity | Pressure | Rain* | Wind** | Luminosity | Snow |
|---|---|---|---|---|---|---|---|
| 1777727883 | 24.44° C | 81% | 1011.4 hPa | 0 mm | - | 136 W/m² | - |
| 1777727580 | 24.44° C | 83% | 1011.3 hPa | 0 mm | - | 143 W/m² | - |
| 1777727277 | 24.44° C | 84% | 1011.4 hPa | 0 mm | - | 143 W/m² | - |
| 1777726975 | 23.89° C | 85% | 1011.1 hPa | 0 mm | - | 151 W/m² | - |
| 1777726671 | 23.89° C | 87% | 1011.2 hPa | 0 mm | - | 106 W/m² | - |
| 1777726368 | 23.89° C | 89% | 1011 hPa | 0 mm | - | 99 W/m² | - |
| 1777726065 | 23.89° C | 90% | 1011 hPa | 0 mm | - | 80 W/m² | - |
| 1777725761 | 23.89° C | 91% | 1011.2 hPa | 0 mm | - | 93 W/m² | - |
| 1777725460 | 23.33° C | 91% | 1011.1 hPa | 0 mm | - | 102 W/m² | - |
| 1777725157 | 23.33° C | 92% | 1011 hPa | 0 mm | - | 81 W/m² | - |
| 1777724854 | 22.78° C | 92% | 1011 hPa | 0 mm | - | 78 W/m² | - |
| 1777724550 | 22.78° C | 93% | 1010.9 hPa | 0 mm | - | 76 W/m² | - |
| 1777724249 | 22.78° C | 94% | 1011.1 hPa | 0 mm | - | 60 W/m² | - |
| 1777723946 | 22.78° C | 95% | 1010.9 hPa | 0 mm | - | 57 W/m² | - |
| 1777723642 | 22.22° C | 96% | 1010.9 hPa | 0 mm | - | 55 W/m² | - |
| 1777723339 | 22.22° C | 96% | 1010.9 hPa | 0 mm | - | 51 W/m² | - |
| 1777723037 | 22.22° C | 96% | 1011.1 hPa | 0 mm | - | 48 W/m² | - |
| 1777722733 | 21.67° C | 96% | 1010.9 hPa | 0 mm | - | 41 W/m² | - |
| 1777722429 | 21.67° C | 97% | 1010.9 hPa | 0 mm | - | 37 W/m² | - |
| 1777722127 | 21.67° C | 97% | 1010.9 hPa | 0 mm | - | 34 W/m² | - |
| 1777721823 | 21.67° C | 97% | 1010.7 hPa | 0 mm | - | 31 W/m² | - |
| 1777721521 | 21.67° C | 98% | 1011 hPa | 0 mm | - | 30 W/m² | - |
| 1777721219 | 21.67° C | 98% | 1010.7 hPa | 0 mm | - | 24 W/m² | - |
| 1777720916 | 21.67° C | 98% | 1010.8 hPa | 0 mm | - | 21 W/m² | - |
| 1777720614 | 21.67° C | 98% | 1010.6 hPa | 0 mm | - | 18 W/m² | - |
* Rain latest hour (hover to see other rain measurements)
** Current wind speed in m/s (hover to see current wind gust speed)